SCP
0 0 0 0 0 0 0 0 0 0 0 1 1 1 2 2 2 2 2 2 2 3 4 3 3 3 4 5 6 7 8 8 8 8 8 9 8 5 3 2 2 1 1 1
0 0 0 0 0 0 0 0 0 0 0 0 1 2 2 2 2 2 2 2 3 4 4 4 3 3 4 5 5 6 7 8 7 8 9 8 7 5 4 3 2 2 1 1
0 0 0 0 0 0 0 0 0 0 0 0 1 1 2 2 2 2 2 3 4 5 5 4 4 4 4 4 4 5 6 7 7 8 9 8 6 5 4 3 2 2 2 2
0 0 0 0 0 0 0 0 0 0 0 0 0 1 1 2 2 2 3 4 4 4 4 4 4 4 3 4 4 5 6 7 7 9 9 8 6 5 4 3 3 2 2 2
0 0 0 0 0 0 0 0 0 0 0 0 0 0 1 1 2 2 3 3 4 4 3 3 3 4 4 4 5 5 6 6 7 8 8 8 6 5 4 4 3 2 2 2
0 0 0 0 0 0 0 0 0 0 0 0 0 0 0 1 1 2 3 3 3 3 3 3 3 4 4 4 5 6 7 6 6 7 7 7 7 6 5 4 3 3 2 2
0 0 0 0 0 0 0 0 0 0 0 0 0 0 1 1 1 1 2 3 3 3 3 3 3 4 4 4 4 6 7 7 5 5 6 6 7 6 5 4 3 2 2 1
0 0 0 0 0 0 0 0 0 0 0 0 0 0 1 1 1 2 2 3 3 3 3 3 3 3 3 3 3 4 6 7 5 5 5 5 5 5 5 4 3 2 1 1
0 0 0 0 0 0 0 0 0 0 0 0 0 0 1 1 2 2 2 3 3 3 2 2 2 2 3 3 3 3 4 5 4 4 4 4 4 4 4 4 3 2 1 1
1 0 0 0 0 0 0 0 0 0 0 0 0 0 1 1 1 2 2 3 3 3 2 2 2 2 2 2 2 2 3 3 3 3 3 3 3 3 3 3 2 2 1 1
1 1 0 0 0 0 0 0 0 0 0 0 0 1 1 1 2 2 2 3 3 3 2 2 2 2 2 2 2 2 2 3 3 3 3 3 3 3 3 2 2 2 2 1
1 1 0 0 0 0 0 0 0 0 0 0 0 1 1 2 2 2 3 3 3 2 2 2 2 2 2 1 2 2 2 3 3 3 3 3 3 3 2 2 2 2 1 1
1 1 1 0 0 0 0 0 0 0 0 0 0 1 1 2 2 2 3 3 2 2 2 2 1 1 1 1 1 1 2 2 3 3 2 2 2 2 2 2 1 1 1 1
1 1 1 1 0 0 0 0 0 0 0 0 0 1 1 1 2 2 2 2 1 1 1 1 1 1 1 1 1 1 2 2 3 3 3 2 2 2 2 2 1 1 1 1
1 1 1 0 0 0 0 0 0 0 0 0 0 1 1 1 2 2 2 2 2 1 1 1 1 1 1 1 1 2 2 2 3 3 3 2 2 2 2 2 1 1 1 1
0 1 1 0 0 0 0 0 0 0 0 0 0 1 1 1 1 2 2 2 2 2 1 1 0 1 1 1 1 2 1 1 2 3 3 2 2 2 2 1 1 1 1 1
0 1 1 0 0 0 0 0 0 0 0 0 1 1 1 1 1 2 2 2 2 2 1 1 1 1 1 1 1 1 1 1 1 2 2 2 2 1 1 1 1 1 1 1
0 1 1 0 0 0 0 1 1 1 1 1 1 1 1 1 1 1 2 1 1 1 1 1 1 1 1 1 1 1 1 1 1 1 2 2 2 1 0 0 1 1 1 1
0 0 0 0 0 0 0 1 1 1 1 1 1 1 1 1 1 1 1 1 1 1 1 1 1 1 1 1 1 1 1 1 1 1 1 1 1 1 0 0 1 1 1 1
0 0 0 0 0 0 0 1 1 1 1 1 1 1 1 1 0 0 0 1 1 1 1 1 1 1 1 1 1 1 1 1 1 1 1 1 1 1 1 1 1 1 1 1
0 0 0 0 0 0 0 0 1 1 1 1 1 1 1 1 1 0 1 1 0 0 0 0 0 1 1 1 1 1 1 1 1 1 1 1 1 1 1 1 1 1 1 1
0 0 0 0 0 0 0 0 1 1 1 1 0 0 0 1 1 1 1 1 0 0 0 0 0 0 0 0 1 1 1 1 1 1 1 1 1 1 1 1 1 1 1 1
0 0 0 0 0 0 0 0 0 0 1 1 0 0 0 1 1 1 1 1 0 0 0 0 0 0 0 0 1 1 1 1 1 1 1 1 1 1 1 1 1 1 1 1
0 0 0 0 0 0 0 1 0 0 0 0 0 0 0 0 1 1 1 1 0 0 0 0 0 0 0 0 1 1 1 1 1 1 1 1 1 1 1 1 1 1 1 0
0 0 0 0 0 0 0 1 0 0 0 0 0 0 0 0 1 1 1 1 0 0 0 0 0 0 1 1 1 1 1 1 1 1 1 1 1 1 1 1 1 1 1 0
0 0 0 0 0 0 0 0 0 0 0 0 0 0 0 0 1 1 1 1 0 0 0 0 0 1 1 1 1 1 1 1 1 1 0 0 0 1 1 1 1 1 0 0
Wind_Speed
4 5 4 1 3 4 4 6 4 2 1 5 5 4 4 4 5 5 4 4 5 5 5 5 5 6 6 6 7 7 6 6 5 4 4 3 3 2 2 2 2 2 2 2
6 4 2 3 3 6 7 7 4 2 1 5 5 5 3 3 4 4 4 4 5 4 5 5 5 6 6 6 7 7 7 6 6 4 3 2 2 1 1 1 1 2 2 2
4 2 1 3 4 6 6 5 4 5 3 6 7 6 3 3 2 3 4 4 4 5 5 5 5 6 6 7 7 6 6 6 5 5 4 3 3 2 2 2 2 2 2 2
2 1 2 4 3 5 5 4 6 7 8 5 6 6 3 3 2 1 2 3 4 4 5 5 5 6 6 6 6 6 6 6 6 5 5 5 3 2 2 2 1 2 2 3
1 1 2 3 3 5 4 4 7 8 9 7 6 8 2 2 1 1 1 1 2 3 4 4 5 5 5 5 5 5 5 5 6 5 5 5 3 2 1 2 2 2 2 3
2 2 3 4 4 3 2 5 7 8 9 8 4 7 2 1 3 3 2 1 0 1 2 3 4 4 4 4 5 5 6 5 6 5 5 4 3 2 2 2 2 3 2 2
3 3 1 2 4 2 5 6 5 6 6 4 1 6 1 5 4 3 3 2 2 1 1 2 4 4 4 5 5 5 6 5 5 5 4 4 4 4 4 3 3 3 2 2
4 2 1 3 5 6 6 7 7 7 7 5 4 4 3 5 4 4 4 4 4 2 1 1 3 4 4 5 5 5 5 5 4 4 4 4 4 4 3 3 3 3 3 2
6 4 2 3 5 7 6 6 7 9 10 9 5 2 4 3 4 5 5 5 5 4 3 2 2 3 3 4 4 5 5 5 5 4 4 4 4 3 2 2 3 3 2 3
7 8 5 4 5 4 6 6 6 8 8 8 6 4 1 2 4 6 6 5 5 4 3 3 2 2 2 2 3 3 4 4 4 4 3 3 3 3 3 3 2 2 3 3
6 7 6 5 5 6 4 5 6 7 7 9 7 2 5 4 4 5 5 6 5 4 3 3 2 2 2 1 2 3 3 3 3 3 2 2 3 3 3 3 3 2 2 3
5 7 7 6 3 4 5 6 6 7 7 8 9 2 6 6 5 4 5 5 5 4 3 3 3 2 2 1 1 2 2 2 2 2 2 2 2 2 2 2 2 2 2 2
6 6 8 5 4 3 4 5 7 8 8 8 9 2 5 5 5 5 4 5 5 4 4 4 3 2 1 0 1 1 2 2 2 2 2 2 2 1 1 1 1 2 2 2
6 6 8 9 8 9 9 9 9 10 8 9 8 7 3 4 4 4 4 4 4 3 3 3 2 2 1 0 1 1 1 1 2 2 2 2 2 1 1 1 1 1 1 2
5 7 7 10 11 11 10 10 10 10 10 11 10 8 5 4 3 3 3 4 4 3 3 3 2 2 1 1 1 1 1 2 2 2 3 2 2 1 1 1 1 1 2 2
5 7 8 9 8 9 9 9 8 8 8 9 9 7 4 4 2 2 3 3 4 3 3 3 3 2 2 1 1 1 1 2 2 3 3 2 2 2 2 2 2 2 2 2
5 6 7 7 6 8 5 3 4 4 5 6 7 5 3 4 3 3 2 3 3 4 3 3 3 3 2 2 2 2 2 2 2 3 3 3 2 2 2 2 1 2 2 2
6 7 6 7 7 6 3 4 5 5 4 4 4 3 3 4 5 3 2 3 4 4 4 3 3 3 3 2 1 2 2 2 2 2 3 3 2 2 3 2 2 2 2 2
6 6 6 6 7 6 1 3 5 6 4 5 4 4 4 5 5 1 3 5 5 5 4 3 3 3 2 2 1 2 2 3 2 2 2 3 3 3 3 2 2 2 2 2
5 6 7 7 8 6 5 7 7 7 3 6 5 5 5 6 6 4 5 6 6 5 4 3 3 3 2 2 2 2 3 3 2 2 2 2 2 2 2 2 2 2 2 2
4 5 7 8 8 4 6 8 7 5 5 7 6 6 6 7 7 6 6 6 6 5 5 4 4 3 2 2 2 3 3 3 2 2 2 2 2 2 2 2 2 2 2 2
7 6 5 6 7 2 8 7 6 8 8 7 7 6 6 6 6 5 5 5 5 5 5 4 3 3 2 2 3 3 3 2 2 2 2 2 2 2 2 2 2 2 2 3
4 5 5 5 5 6 7 7 7 7 8 7 7 7 7 7 6 6 6 5 5 5 4 4 3 3 2 2 3 3 2 2 2 2 2 2 2 2 2 3 3 3 3 3
4 4 6 7 6 6 6 6 6 7 8 8 7 6 6 6 6 6 6 5 5 4 4 3 3 3 2 2 2 3 2 3 3 2 2 3 3 3 3 3 3 2 2 2
7 6 7 9 8 8 6 7 8 8 8 7 7 6 6 6 6 6 5 5 4 4 3 3 3 3 3 2 2 2 2 3 3 2 2 3 3 2 2 2 2 2 1 2
6 7 9 8 7 8 9 9 9 9 8 7 7 7 6 5 6 6 5 4 4 4 4 3 3 4 3 3 3 3 3 3 3 2 3 2 2 2 2 2 1 1 1 0
Wind_Direction
203 232 233 281 286 305 280 268 265 275 254 257 258 263 256 235 225 222 212 207 203 201 192 187 185 187 182 179 178 180 179 170 176 180 188 188 190 197 197 188 191 223 238 242
212 225 288 282 263 256 253 260 266 271 222 260 264 268 256 227 216 216 210 205 201 200 189 186 186 185 187 185 184 182 181 178 182 179 188 190 187 202 199 205 187 227 235 248
279 20 354 252 242 248 252 274 291 288 266 242 250 230 214 170 178 196 205 209 202 202 196 189 189 188 188 187 187 182 182 182 181 176 174 164 173 190 192 194 195 220 235 237
277 352 253 256 270 279 271 301 285 268 257 244 254 268 193 154 168 171 193 198 202 199 197 192 187 188 189 187 180 179 178 176 174 178 179 186 194 200 197 218 209 224 235 243
273 322 291 294 322 292 308 297 270 261 262 262 242 268 185 161 258 319 285 224 209 202 196 194 189 185 181 176 172 173 172 171 173 179 180 196 204 201 192 198 194 240 229 238
271 262 302 318 316 286 278 258 249 241 246 250 257 269 274 48 341 335 336 339 276 193 181 175 171 166 158 164 170 169 168 171 174 179 183 192 193 201 207 211 205 224 223 233
234 194 187 293 280 225 257 274 262 243 238 254 184 260 6 42 19 357 353 16 49 68 117 151 161 159 159 163 168 167 167 170 177 184 190 193 198 206 209 225 217 240 245 244
296 245 58 335 314 309 282 283 291 294 292 293 239 259 79 57 32 32 38 46 59 51 88 137 154 160 169 162 161 167 171 172 179 187 194 199 205 217 214 228 255 250 265 271
333 319 333 306 300 290 280 283 304 289 279 273 258 237 137 64 26 32 40 44 47 42 47 73 124 150 169 167 168 175 172 175 183 188 193 198 209 233 238 231 239 250 263 268
321 296 291 290 259 244 292 302 286 283 291 286 275 263 285 49 14 18 19 20 24 33 40 58 81 112 129 154 160 169 175 188 187 186 191 194 212 228 233 241 248 256 262 275
314 287 282 268 279 305 278 266 281 284 288 291 292 327 44 51 45 15 9 16 20 21 33 54 80 94 94 97 150 167 175 183 188 189 190 205 220 223 229 237 245 253 269 266
331 297 288 285 300 289 277 289 290 287 286 279 286 336 72 57 46 29 23 23 30 29 32 46 65 85 99 126 157 181 173 179 184 176 185 211 225 220 228 242 271 276 272 272
329 292 284 258 196 204 278 294 289 285 282 274 276 282 96 55 39 35 36 30 34 40 40 41 56 67 73 135 165 185 192 186 180 179 191 199 212 214 232 263 279 287 285 289
295 277 284 298 311 313 297 293 290 285 278 278 281 293 314 15 22 25 28 27 28 35 35 31 37 38 8 285 211 204 203 202 185 195 209 208 209 217 238 252 266 271 285 283
308 279 281 286 288 284 288 287 283 278 283 286 294 299 337 360 353 2 12 12 14 20 13 10 2 4 346 325 261 218 205 226 207 211 219 214 210 225 241 244 251 268 280 282
313 291 289 278 275 280 284 287 284 281 283 283 286 294 358 348 351 351 2 3 356 356 351 345 338 342 334 326 297 272 230 225 221 219 226 214 214 223 227 225 233 255 278 293
286 285 289 286 300 279 269 307 304 302 312 302 299 326 357 340 326 323 336 339 340 339 333 329 326 320 321 314 288 275 268 230 222 227 230 221 209 216 225 226 244 266 280 289
270 281 278 288 288 274 49 31 343 318 331 333 332 358 355 342 323 311 334 341 341 337 332 325 324 319 311 300 272 284 274 242 221 231 238 224 214 219 222 224 237 258 264 273
239 268 281 282 289 287 265 9 333 309 316 7 2 360 353 345 317 304 10 350 335 329 321 310 308 305 295 282 265 271 269 247 226 227 245 232 219 222 225 231 236 245 254 266
215 247 267 280 289 294 15 13 337 293 264 41 2 345 336 314 304 336 343 328 324 322 315 307 300 298 286 271 259 259 259 247 236 241 250 242 224 226 236 244 249 252 257 269
258 250 261 277 277 288 20 354 324 295 5 355 332 324 316 321 327 324 312 308 306 301 299 296 293 288 284 271 259 264 262 254 247 248 250 234 221 229 238 242 243 252 261 276
298 290 279 277 272 307 18 347 343 340 332 322 322 322 320 323 318 308 301 301 302 302 300 297 292 282 260 242 247 259 268 264 247 235 237 231 227 238 228 233 243 246 253 249
284 314 313 304 308 342 334 330 332 324 320 321 320 319 315 310 307 307 301 299 299 298 296 293 288 280 264 249 251 256 266 258 236 222 221 228 228 234 238 236 239 238 233 258
273 281 275 277 281 303 311 319 323 323 322 321 313 308 303 300 301 300 297 294 295 297 292 286 281 277 275 270 262 257 256 243 224 220 221 223 226 227 225 242 243 250 259 270
291 284 275 272 287 299 298 318 322 321 318 314 310 304 299 296 292 292 293 292 294 296 295 295 292 286 280 283 274 264 251 225 215 219 221 226 228 225 236 243 274 280 320 336
270 274 280 291 304 299 301 309 312 310 312 312 308 304 301 291 284 284 285 287 286 285 281 277 276 278 275 276 273 260 236 216 214 221 228 234 230 221 238 231 207 118 252 163